Time,TemperatureF,DewpointF,PressureIn,WindDirection,WindDirectionDegrees,WindSpeedMPH,WindSpeedGustMPH,Humidity,HourlyPrecipIn,Conditions,Clouds,dailyrainin,SoftwareType,DateUTC
2013-01-08 00:03:00,32.4,28.7,30.16,SSW,200,0.0,0.0,86,0.00,,,0.00,VWS V14.00,2013-01-08 06:03:00,
2013-01-08 00:13:00,32.1,28.4,30.16,SSW,200,0.0,0.0,86,0.00,,,0.00,VWS V14.00,2013-01-08 06:13:00,
2013-01-08 00:18:00,31.8,28.1,30.16,SSW,200,0.0,0.0,86,0.00,,,0.00,VWS V14.00,2013-01-08 06:18:00,
2013-01-08 00:23:00,31.6,27.9,30.16,SSW,200,0.0,0.0,86,0.00,,,0.00,VWS V14.00,2013-01-08 06:23:00,
2013-01-08 00:28:00,31.6,27.9,30.16,SSW,200,0.0,0.0,86,0.00,,,0.00,VWS V14.00,2013-01-08 06:28:00,
2013-01-08 00:33:00,31.8,28.1,30.16,SSW,200,0.0,0.0,86,0.00,,,0.00,VWS V14.00,2013-01-08 06:33:00,
2013-01-08 00:43:00,31.8,28.1,30.16,SSW,200,0.0,0.0,86,0.00,,,0.00,VWS V14.00,2013-01-08 06:43:00,
2013-01-08 00:48:00,31.8,28.1,30.17,SSW,200,0.0,0.0,86,0.00,,CLR,0.00,VWS V14.00,2013-01-08 06:48:00,
2013-01-08 00:53:00,31.8,28.1,30.17,SSW,200,0.0,0.0,86,0.00,,CLR,0.00,VWS V14.00,2013-01-08 06:53:00,
2013-01-08 00:58:00,31.8,28.1,30.17,SSW,200,0.0,0.0,86,0.00,,CLR,0.00,VWS V14.00,2013-01-08 06:58:00,
2013-01-08 01:08:00,31.6,27.9,30.16,SSW,200,0.0,0.0,86,0.00,,CLR,0.00,VWS V14.00,2013-01-08 07:08:00,
2013-01-08 01:13:00,31.5,27.8,30.16,SSW,200,0.0,0.0,86,0.00,,CLR,0.00,VWS V14.00,2013-01-08 07:13:00,
2013-01-08 01:18:00,31.3,27.6,30.17,SSW,200,0.0,0.0,86,0.00,,CLR,0.00,VWS V14.00,2013-01-08 07:18:00,
2013-01-08 01:23:00,31.2,27.5,30.17,SSW,200,0.0,0.0,86,0.00,,CLR,0.00,VWS V14.00,2013-01-08 07:23:00,
2013-01-08 01:33:00,31.2,27.5,30.16,SSW,200,0.0,0.0,86,0.00,,CLR,0.00,VWS V14.00,2013-01-08 07:33:00,
2013-01-08 01:38:00,31.2,27.5,30.16,SSW,200,1.0,2.0,86,0.00,,CLR,0.00,VWS V14.00,2013-01-08 07:38:00,
2013-01-08 01:43:00,31.0,27.3,30.16,SSW,200,0.0,1.0,86,0.00,,CLR,0.00,VWS V14.00,2013-01-08 07:43:00,
2013-01-08 01:48:00,31.0,27.3,30.15,SSW,200,1.0,3.0,86,0.00,,,0.00,VWS V14.00,2013-01-08 07:48:00,
2013-01-08 01:53:00,31.2,27.8,30.15,SSW,200,2.0,2.0,87,0.00,,,0.00,VWS V14.00,2013-01-08 07:53:00,
2013-01-08 02:03:00,31.5,28.1,30.16,SSW,200,0.0,3.0,87,0.00,,,0.00,VWS V14.00,2013-01-08 08:03:00,
2013-01-08 02:08:00,31.6,28.2,30.16,SSW,200,1.0,2.0,87,0.00,,,0.00,VWS V14.00,2013-01-08 08:08:00,
2013-01-08 02:13:00,31.6,28.2,30.16,SSW,200,2.0,2.0,87,0.00,,,0.00,VWS V14.00,2013-01-08 08:13:00,
2013-01-08 02:18:00,31.8,28.4,30.16,SSW,200,0.0,2.0,87,0.00,,,0.00,VWS V14.00,2013-01-08 08:18:00,
2013-01-08 02:23:00,31.6,27.9,30.16,SSW,200,0.0,0.0,86,0.00,,,0.00,VWS V14.00,2013-01-08 08:23:00,
2013-01-08 02:28:00,31.6,27.9,30.16,SSW,200,0.0,0.0,86,0.00,,,0.00,VWS V14.00,2013-01-08 08:28:00,
2013-01-08 02:33:00,31.6,27.9,30.16,SSW,200,0.0,0.0,86,0.00,,,0.00,VWS V14.00,2013-01-08 08:33:00,
2013-01-08 02:43:00,31.3,27.6,30.16,SSW,200,0.0,0.0,86,0.00,,,0.00,VWS V14.00,2013-01-08 08:43:00,
2013-01-08 02:48:00,31.0,27.3,30.15,SSW,200,0.0,0.0,86,0.00,,,0.00,VWS V14.00,2013-01-08 08:48:00,
2013-01-08 02:58:00,30.9,27.2,30.15,SSW,200,0.0,0.0,86,0.00,,,0.00,VWS V14.00,2013-01-08 08:58:00,
2013-01-08 03:08:00,31.0,27.6,30.15,SSW,200,0.0,0.0,87,0.00,,,0.00,VWS V14.00,2013-01-08 09:08:00,
2013-01-08 03:13:00,30.9,27.2,30.15,SSW,200,0.0,0.0,86,0.00,,,0.00,VWS V14.00,2013-01-08 09:13:00,
2013-01-08 03:18:00,31.0,27.3,30.15,SSW,200,0.0,0.0,86,0.00,,,0.00,VWS V14.00,2013-01-08 09:18:00,
2013-01-08 03:23:00,31.0,27.3,30.15,SSW,200,0.0,0.0,86,0.00,,,0.00,VWS V14.00,2013-01-08 09:23:00,
2013-01-08 03:28:00,30.9,27.2,30.15,SSW,200,0.0,0.0,86,0.00,,,0.00,VWS V14.00,2013-01-08 09:28:00,
2013-01-08 03:38:00,30.7,27.0,30.15,SSW,200,0.0,0.0,86,0.00,,,0.00,VWS V14.00,2013-01-08 09:38:00,
2013-01-08 03:48:00,31.0,27.3,30.14,SSW,200,0.0,0.0,86,0.00,,,0.00,VWS V14.00,2013-01-08 09:48:00,
2013-01-08 03:53:00,30.9,27.2,30.14,SSW,200,0.0,0.0,86,0.00,,,0.00,VWS V14.00,2013-01-08 09:53:00,
2013-01-08 03:58:00,30.7,27.0,30.14,SSW,200,0.0,0.0,86,0.00,,,0.00,VWS V14.00,2013-01-08 09:58:00,
2013-01-08 04:03:00,30.4,26.7,30.15,SSW,200,0.0,0.0,86,0.00,,,0.00,VWS V14.00,2013-01-08 10:03:00,
2013-01-08 04:08:00,30.4,26.7,30.15,SSW,200,0.0,0.0,86,0.00,,,0.00,VWS V14.00,2013-01-08 10:08:00,
2013-01-08 04:13:00,30.3,26.6,30.15,SSW,200,0.0,0.0,86,0.00,,,0.00,VWS V14.00,2013-01-08 10:13:00,
2013-01-08 04:18:00,30.3,26.6,30.15,SSW,200,0.0,0.0,86,0.00,,,0.00,VWS V14.00,2013-01-08 10:18:00,
2013-01-08 04:23:00,30.3,26.6,30.15,SSW,200,0.0,0.0,86,0.00,,,0.00,VWS V14.00,2013-01-08 10:23:00,
2013-01-08 04:28:00,30.1,26.4,30.15,SSW,200,0.0,0.0,86,0.00,,,0.00,VWS V14.00,2013-01-08 10:28:00,
2013-01-08 04:33:00,30.1,26.4,30.15,SSW,200,0.0,0.0,86,0.00,,,0.00,VWS V14.00,2013-01-08 10:33:00,
2013-01-08 04:38:00,30.0,26.3,30.15,SSW,200,0.0,0.0,86,0.00,,,0.00,VWS V14.00,2013-01-08 10:38:00,
2013-01-08 04:43:00,30.1,26.7,30.15,SSW,200,0.0,0.0,87,0.00,,,0.00,VWS V14.00,2013-01-08 10:43:00,
2013-01-08 04:53:00,30.3,26.6,30.15,SSW,200,0.0,0.0,86,0.00,,,0.00,VWS V14.00,2013-01-08 10:53:00,
2013-01-08 04:58:00,30.3,26.6,30.15,SSW,200,0.0,0.0,86,0.00,,,0.00,VWS V14.00,2013-01-08 10:58:00,
2013-01-08 05:03:00,30.3,26.6,30.16,SSW,200,0.0,0.0,86,0.00,,,0.00,VWS V14.00,2013-01-08 11:03:00,
2013-01-08 05:08:00,30.1,26.4,30.16,SSW,200,0.0,0.0,86,0.00,,,0.00,VWS V14.00,2013-01-08 11:08:00,
2013-01-08 05:13:00,30.0,26.3,30.16,SSW,200,0.0,0.0,86,0.00,,,0.00,VWS V14.00,2013-01-08 11:13:00,
2013-01-08 05:23:00,29.7,26.0,30.16,SSW,200,0.0,0.0,86,0.00,,,0.00,VWS V14.00,2013-01-08 11:23:00,
2013-01-08 05:33:00,29.7,26.3,30.16,SSW,200,0.0,0.0,87,0.00,,,0.00,VWS V14.00,2013-01-08 11:33:00,
2013-01-08 05:38:00,29.7,26.3,30.16,SSW,200,0.0,2.0,87,0.00,,,0.00,VWS V14.00,2013-01-08 11:38:00,
2013-01-08 05:48:00,29.5,26.1,30.16,SSW,200,0.0,0.0,87,0.00,,,0.00,VWS V14.00,2013-01-08 11:48:00,
2013-01-08 05:53:00,29.5,26.1,30.16,SSW,200,0.0,0.0,87,0.00,,,0.00,VWS V14.00,2013-01-08 11:53:00,
2013-01-08 05:58:00,29.5,26.1,30.16,SSW,200,0.0,0.0,87,0.00,,,0.00,VWS V14.00,2013-01-08 11:58:00,
2013-01-08 06:03:00,29.5,26.4,30.16,SSW,200,0.0,0.0,88,0.00,,,0.00,VWS V14.00,2013-01-08 12:03:00,
2013-01-08 06:08:00,29.8,26.7,30.16,SSW,200,1.0,2.0,88,0.00,,,0.00,VWS V14.00,2013-01-08 12:08:00,
2013-01-08 06:13:00,30.0,26.9,30.16,SSW,200,2.0,2.0,88,0.00,,,0.00,VWS V14.00,2013-01-08 12:13:00,
2013-01-08 06:18:00,30.1,27.0,30.16,SSW,200,3.0,3.0,88,0.00,,,0.00,VWS V14.00,2013-01-08 12:18:00,
2013-01-08 06:23:00,30.3,27.2,30.16,SSW,200,0.0,3.0,88,0.00,,,0.00,VWS V14.00,2013-01-08 12:23:00,
2013-01-08 06:28:00,30.6,27.5,30.16,SSW,200,0.0,2.0,88,0.00,,,0.00,VWS V14.00,2013-01-08 12:28:00,
2013-01-08 06:33:00,30.7,27.6,30.18,SSW,200,0.0,0.0,88,0.00,,,0.00,VWS V14.00,2013-01-08 12:33:00,
2013-01-08 06:43:00,31.2,27.8,30.18,SSW,200,0.0,2.0,87,0.00,,,0.00,VWS V14.00,2013-01-08 12:43:00,
2013-01-08 06:48:00,31.3,27.6,30.18,SSW,200,0.0,1.0,86,0.00,,,0.00,VWS V14.00,2013-01-08 12:48:00,
2013-01-08 06:53:00,31.5,27.8,30.18,SSW,200,0.0,1.0,86,0.00,,,0.00,VWS V14.00,2013-01-08 12:53:00,
2013-01-08 06:58:00,31.6,27.9,30.18,SSW,200,1.0,1.0,86,0.00,,,0.00,VWS V14.00,2013-01-08 12:58:00,
2013-01-08 07:03:00,31.8,27.8,30.19,SSW,200,0.0,1.0,85,0.00,,,0.00,VWS V14.00,2013-01-08 13:03:00,
2013-01-08 07:08:00,31.8,27.5,30.19,SSW,200,1.0,1.0,84,0.00,,,0.00,VWS V14.00,2013-01-08 13:08:00,
2013-01-08 07:13:00,31.8,27.5,30.19,SSW,200,0.0,1.0,84,0.00,,,0.00,VWS V14.00,2013-01-08 13:13:00,
2013-01-08 07:18:00,31.6,27.0,30.19,SSW,200,0.0,0.0,83,0.00,,,0.00,VWS V14.00,2013-01-08 13:18:00,
2013-01-08 07:23:00,31.6,27.0,30.19,SSW,200,0.0,0.0,83,0.00,,,0.00,VWS V14.00,2013-01-08 13:23:00,
2013-01-08 07:28:00,31.6,27.0,30.19,SSW,200,0.0,0.0,83,0.00,,,0.00,VWS V14.00,2013-01-08 13:28:00,
2013-01-08 07:33:00,31.5,26.9,30.19,SSW,200,0.0,0.0,83,0.00,,,0.00,VWS V14.00,2013-01-08 13:33:00,
2013-01-08 07:43:00,31.5,26.9,30.19,SSW,200,0.0,0.0,83,0.00,,,0.00,VWS V14.00,2013-01-08 13:43:00,
2013-01-08 07:53:00,31.6,27.0,30.20,SSW,200,0.0,0.0,83,0.00,,,0.00,VWS V14.00,2013-01-08 13:53:00,
2013-01-08 08:03:00,32.1,27.2,30.20,SSW,200,0.0,2.0,82,0.00,,,0.00,VWS V14.00,2013-01-08 14:03:00,
2013-01-08 08:13:00,33.4,28.2,30.20,SSW,200,0.0,0.0,81,0.00,,,0.00,VWS V14.00,2013-01-08 14:13:00,
2013-01-08 08:18:00,34.3,28.5,30.21,SSW,200,0.0,0.0,79,0.00,,,0.00,VWS V14.00,2013-01-08 14:18:00,
2013-01-08 08:28:00,34.9,27.8,30.21,SE,130,2.0,5.0,75,0.00,,,0.00,VWS V14.00,2013-01-08 14:28:00,
2013-01-08 08:33:00,35.0,27.9,30.21,SE,136,0.0,4.0,75,0.00,,,0.00,VWS V14.00,2013-01-08 14:33:00,
2013-01-08 08:43:00,35.8,28.3,30.21,SE,136,1.0,4.0,74,0.00,,,0.00,VWS V14.00,2013-01-08 14:43:00,
2013-01-08 08:48:00,36.2,28.4,30.21,SE,136,2.0,2.0,73,0.00,,,0.00,VWS V14.00,2013-01-08 14:48:00,
2013-01-08 08:53:00,36.8,28.6,30.21,SE,136,1.0,3.0,72,0.00,,,0.00,VWS V14.00,2013-01-08 14:53:00,
2013-01-08 08:58:00,37.0,28.8,30.21,SE,136,1.0,4.0,72,0.00,,,0.00,VWS V14.00,2013-01-08 14:58:00,
2013-01-08 09:03:00,37.2,29.4,30.21,SE,135,1.0,4.0,73,0.00,,,0.00,VWS V14.00,2013-01-08 15:03:00,
2013-01-08 09:08:00,37.6,29.4,30.21,SE,135,2.0,3.0,72,0.00,,,0.00,VWS V14.00,2013-01-08 15:08:00,
2013-01-08 09:13:00,37.8,29.3,30.21,SE,142,5.0,6.0,71,0.00,,,0.00,VWS V14.00,2013-01-08 15:13:00,
2013-01-08 09:18:00,37.8,29.3,30.21,ESE,116,3.0,5.0,71,0.00,,,0.00,VWS V14.00,2013-01-08 15:18:00,
2013-01-08 09:23:00,37.9,29.7,30.21,SE,130,2.0,4.0,72,0.00,,,0.00,VWS V14.00,2013-01-08 15:23:00,
2013-01-08 09:28:00,38.3,30.1,30.21,SE,129,3.0,4.0,72,0.00,,,0.00,VWS V14.00,2013-01-08 15:28:00,
2013-01-08 09:33:00,38.8,30.2,30.21,SE,129,3.0,4.0,71,0.00,,,0.00,VWS V14.00,2013-01-08 15:33:00,
2013-01-08 09:38:00,38.9,30.7,30.21,SE,129,1.0,5.0,72,0.00,,,0.00,VWS V14.00,2013-01-08 15:38:00,
2013-01-08 09:43:00,39.2,31.0,30.21,SE,142,4.0,6.0,72,0.00,,,0.00,VWS V14.00,2013-01-08 15:43:00,
2013-01-08 09:53:00,40.1,31.5,30.22,SE,138,3.0,8.0,71,0.00,,,0.00,VWS V14.00,2013-01-08 15:53:00,
2013-01-08 10:03:00,40.6,32.0,30.21,SSE,157,4.0,9.0,71,0.00,,,0.00,VWS V14.00,2013-01-08 16:03:00,
2013-01-08 10:08:00,41.1,32.4,30.21,SSE,147,2.0,6.0,71,0.00,,,0.00,VWS V14.00,2013-01-08 16:08:00,
2013-01-08 10:13:00,41.3,32.6,30.21,SE,142,4.0,5.0,71,0.00,,,0.00,VWS V14.00,2013-01-08 16:13:00,
2013-01-08 10:18:00,41.8,32.8,30.20,SSE,154,3.0,8.0,70,0.00,,,0.00,VWS V14.00,2013-01-08 16:18:00,
2013-01-08 10:23:00,42.2,33.1,30.20,SSE,155,5.0,8.0,70,0.00,,,0.00,VWS V14.00,2013-01-08 16:23:00,
2013-01-08 10:28:00,42.8,33.7,30.20,SSE,160,1.0,7.0,70,0.00,,,0.00,VWS V14.00,2013-01-08 16:28:00,
2013-01-08 10:33:00,43.5,34.0,30.20,SE,146,4.0,7.0,69,0.00,,,0.00,VWS V14.00,2013-01-08 16:33:00,
2013-01-08 10:38:00,43.9,33.7,30.20,South,171,5.0,9.0,67,0.00,,,0.00,VWS V14.00,2013-01-08 16:38:00,
2013-01-08 10:43:00,44.3,34.4,30.20,SSE,167,3.0,7.0,68,0.00,,,0.00,VWS V14.00,2013-01-08 16:43:00,
2013-01-08 10:48:00,44.9,34.6,30.20,SSE,150,4.0,6.0,67,0.00,,,0.00,VWS V14.00,2013-01-08 16:48:00,
2013-01-08 10:53:00,45.2,34.9,30.20,SSE,155,4.0,7.0,67,0.00,,,0.00,VWS V14.00,2013-01-08 16:53:00,
2013-01-08 10:58:00,45.5,35.2,30.20,SSE,149,4.0,9.0,67,0.00,,,0.00,VWS V14.00,2013-01-08 16:58:00,
2013-01-08 11:03:00,46.0,34.9,30.19,SE,127,3.0,9.0,65,0.00,,,0.00,VWS V14.00,2013-01-08 17:03:00,
2013-01-08 11:08:00,46.2,35.1,30.19,SE,137,5.0,8.0,65,0.00,,,0.00,VWS V14.00,2013-01-08 17:08:00,
2013-01-08 11:13:00,47.1,35.6,30.19,SE,136,4.0,8.0,64,0.00,,,0.00,VWS V14.00,2013-01-08 17:13:00,
2013-01-08 11:23:00,47.7,34.9,30.18,SSE,168,10.0,10.0,61,0.00,,,0.00,VWS V14.00,2013-01-08 17:23:00,
2013-01-08 11:28:00,47.9,35.5,30.18,SE,143,7.0,10.0,62,0.00,,,0.00,VWS V14.00,2013-01-08 17:28:00,
2013-01-08 11:33:00,48.0,34.8,30.17,SSW,194,5.0,11.0,60,0.00,,CLR,0.00,VWS V14.00,2013-01-08 17:33:00,
2013-01-08 11:38:00,48.5,35.7,30.17,SSE,159,5.0,8.0,61,0.00,,CLR,0.00,VWS V14.00,2013-01-08 17:38:00,
2013-01-08 11:43:00,48.9,36.1,30.17,South,174,6.0,9.0,61,0.00,,CLR,0.00,VWS V14.00,2013-01-08 17:43:00,
2013-01-08 11:53:00,49.5,36.6,30.16,SSE,162,4.0,9.0,61,0.00,,CLR,0.00,VWS V14.00,2013-01-08 17:53:00,
2013-01-08 11:58:00,49.6,36.7,30.16,South,172,4.0,7.0,61,0.00,,CLR,0.00,VWS V14.00,2013-01-08 17:58:00,
2013-01-08 12:03:00,49.6,36.7,30.16,South,169,3.0,8.0,61,0.00,,CLR,0.00,VWS V14.00,2013-01-08 18:03:00,
2013-01-08 12:08:00,49.9,37.4,30.16,SSE,164,7.0,7.0,62,0.00,,CLR,0.00,VWS V14.00,2013-01-08 18:08:00,
2013-01-08 12:18:00,50.5,36.7,30.16,South,173,4.0,8.0,59,0.00,,CLR,0.00,VWS V14.00,2013-01-08 18:18:00,
2013-01-08 12:23:00,50.7,37.8,30.16,SW,223,0.0,8.0,61,0.00,,CLR,0.00,VWS V14.00,2013-01-08 18:23:00,
2013-01-08 12:28:00,50.8,36.6,30.16,South,178,3.0,8.0,58,0.00,,CLR,0.00,VWS V14.00,2013-01-08 18:28:00,
2013-01-08 12:33:00,51.0,37.2,30.15,SW,222,1.0,7.0,59,0.00,,CLR,0.00,VWS V14.00,2013-01-08 18:33:00,
2013-01-08 12:38:00,51.3,37.5,30.15,South,173,4.0,7.0,59,0.00,,CLR,0.00,VWS V14.00,2013-01-08 18:38:00,
2013-01-08 12:43:00,51.6,37.3,30.15,SSE,167,5.0,7.0,58,0.00,,CLR,0.00,VWS V14.00,2013-01-08 18:43:00,
2013-01-08 12:48:00,51.7,37.8,30.14,SSE,163,6.0,6.0,59,0.00,,CLR,0.00,VWS V14.00,2013-01-08 18:48:00,
2013-01-08 12:53:00,51.9,37.2,30.14,South,172,2.0,9.0,57,0.00,,CLR,0.00,VWS V14.00,2013-01-08 18:53:00,
2013-01-08 12:58:00,52.0,36.3,30.14,South,182,6.0,8.0,55,0.00,,CLR,0.00,VWS V14.00,2013-01-08 18:58:00,
2013-01-08 13:03:00,52.0,35.9,30.13,South,170,8.0,9.0,54,0.00,,CLR,0.00,VWS V14.00,2013-01-08 19:03:00,
2013-01-08 13:08:00,51.9,37.2,30.13,South,176,1.0,8.0,57,0.00,,CLR,0.00,VWS V14.00,2013-01-08 19:08:00,
2013-01-08 13:13:00,52.2,37.0,30.13,SSW,200,4.0,8.0,56,0.00,,CLR,0.00,VWS V14.00,2013-01-08 19:13:00,
2013-01-08 13:23:00,52.6,36.5,30.13,South,184,6.0,8.0,54,0.00,,CLR,0.00,VWS V14.00,2013-01-08 19:23:00,
2013-01-08 13:28:00,52.6,37.4,30.13,SSE,163,4.0,8.0,56,0.00,,CLR,0.00,VWS V14.00,2013-01-08 19:28:00,
2013-01-08 13:33:00,53.1,37.4,30.13,SSW,198,3.0,7.0,55,0.00,,OVC110,0.00,VWS V14.00,2013-01-08 19:33:00,
2013-01-08 13:43:00,53.3,38.0,30.13,South,176,4.0,6.0,56,0.00,,OVC110,0.00,VWS V14.00,2013-01-08 19:43:00,
2013-01-08 13:48:00,53.3,37.6,30.12,SSE,165,3.0,6.0,55,0.00,,OVC110,0.00,VWS V14.00,2013-01-08 19:48:00,
2013-01-08 13:53:00,53.5,36.8,30.12,South,179,0.0,7.0,53,0.00,,OVC110,0.00,VWS V14.00,2013-01-08 19:53:00,
2013-01-08 13:58:00,53.8,37.6,30.12,South,178,2.0,7.0,54,0.00,,OVC110,0.00,VWS V14.00,2013-01-08 19:58:00,
2013-01-08 14:03:00,53.5,37.3,30.12,SSE,155,8.0,10.0,54,0.00,,OVC110,0.00,VWS V14.00,2013-01-08 20:03:00,
2013-01-08 14:08:00,53.5,37.8,30.12,SE,140,3.0,8.0,55,0.00,,OVC110,0.00,VWS V14.00,2013-01-08 20:08:00,
2013-01-08 14:13:00,53.6,38.3,30.12,SSE,157,3.0,8.0,56,0.00,,OVC110,0.00,VWS V14.00,2013-01-08 20:13:00,
2013-01-08 14:23:00,53.6,37.8,30.11,SSE,168,5.0,9.0,55,0.00,,OVC110,0.00,VWS V14.00,2013-01-08 20:23:00,
2013-01-08 14:33:00,53.3,37.6,30.12,SSE,159,6.0,8.0,55,0.00,,CLR,0.00,VWS V14.00,2013-01-08 20:33:00,
2013-01-08 14:38:00,53.3,38.5,30.12,SE,142,2.0,8.0,57,0.00,,CLR,0.00,VWS V14.00,2013-01-08 20:38:00,
2013-01-08 14:43:00,53.3,38.5,30.12,SSE,166,4.0,8.0,57,0.00,,CLR,0.00,VWS V14.00,2013-01-08 20:43:00,
2013-01-08 14:48:00,53.2,39.3,30.12,SSE,153,6.0,8.0,59,0.00,,CLR,0.00,VWS V14.00,2013-01-08 20:48:00,
2013-01-08 14:53:00,53.1,39.6,30.12,SSE,147,5.0,7.0,60,0.00,,CLR,0.00,VWS V14.00,2013-01-08 20:53:00,
2013-01-08 14:58:00,53.2,39.7,30.12,SSE,157,3.0,6.0,60,0.00,,CLR,0.00,VWS V14.00,2013-01-08 20:58:00,
2013-01-08 15:03:00,53.2,39.7,30.12,SSE,159,5.0,7.0,60,0.00,,CLR,0.00,VWS V14.00,2013-01-08 21:03:00,
2013-01-08 15:13:00,53.2,39.7,30.12,SSE,148,3.0,6.0,60,0.00,,CLR,0.00,VWS V14.00,2013-01-08 21:13:00,
2013-01-08 15:23:00,53.2,40.5,30.11,SSE,155,1.0,3.0,62,0.00,,CLR,0.00,VWS V14.00,2013-01-08 21:23:00,
2013-01-08 15:28:00,53.2,40.5,30.11,SSE,155,3.0,3.0,62,0.00,,CLR,0.00,VWS V14.00,2013-01-08 21:28:00,
2013-01-08 15:33:00,53.1,40.8,30.11,SSE,155,0.0,3.0,63,0.00,,CLR,0.00,VWS V14.00,2013-01-08 21:33:00,
2013-01-08 15:43:00,52.9,40.7,30.11,SSE,155,0.0,3.0,63,0.00,,CLR,0.00,VWS V14.00,2013-01-08 21:43:00,
2013-01-08 15:48:00,52.9,40.7,30.11,SSE,155,2.0,3.0,63,0.00,,CLR,0.00,VWS V14.00,2013-01-08 21:48:00,
2013-01-08 15:58:00,52.8,41.0,30.11,SSE,155,0.0,0.0,64,0.00,,CLR,0.00,VWS V14.00,2013-01-08 21:58:00,
2013-01-08 16:08:00,52.5,41.5,30.11,SSE,155,0.0,0.0,66,0.00,,CLR,0.00,VWS V14.00,2013-01-08 22:08:00,
2013-01-08 16:13:00,52.3,41.7,30.11,SSE,155,0.0,0.0,67,0.00,,CLR,0.00,VWS V14.00,2013-01-08 22:13:00,
2013-01-08 16:18:00,52.2,41.6,30.11,SSE,155,2.0,2.0,67,0.00,,CLR,0.00,VWS V14.00,2013-01-08 22:18:00,
2013-01-08 16:28:00,51.9,40.9,30.11,SSE,155,0.0,2.0,66,0.00,,CLR,0.00,VWS V14.00,2013-01-08 22:28:00,
2013-01-08 16:38:00,51.4,40.8,30.13,SSE,155,0.0,0.0,67,0.00,,CLR,0.00,VWS V14.00,2013-01-08 22:38:00,
2013-01-08 16:43:00,51.3,40.7,30.13,SSE,155,0.0,0.0,67,0.00,,CLR,0.00,VWS V14.00,2013-01-08 22:43:00,
2013-01-08 16:48:00,51.0,40.8,30.13,SSE,155,0.0,0.0,68,0.00,,CLR,0.00,VWS V14.00,2013-01-08 22:48:00,
2013-01-08 16:58:00,50.5,40.7,30.13,SSE,155,0.0,0.0,69,0.00,,CLR,0.00,VWS V14.00,2013-01-08 22:58:00,
2013-01-08 17:03:00,50.2,40.8,30.14,SSE,155,0.0,0.0,70,0.00,,CLR,0.00,VWS V14.00,2013-01-08 23:03:00,
2013-01-08 17:13:00,49.5,40.9,30.14,SSE,155,0.0,1.0,72,0.00,,CLR,0.00,VWS V14.00,2013-01-08 23:13:00,
2013-01-08 17:18:00,48.9,41.0,30.14,SSE,155,0.0,0.0,74,0.00,,CLR,0.00,VWS V14.00,2013-01-08 23:18:00,
2013-01-08 17:23:00,48.6,40.7,30.14,SSE,155,0.0,0.0,74,0.00,,CLR,0.00,VWS V14.00,2013-01-08 23:23:00,
2013-01-08 17:28:00,48.5,41.0,30.14,SSE,155,0.0,0.0,75,0.00,,CLR,0.00,VWS V14.00,2013-01-08 23:28:00,
2013-01-08 17:33:00,48.3,40.8,30.14,SSE,155,0.0,0.0,75,0.00,,CLR,0.00,VWS V14.00,2013-01-08 23:33:00,
2013-01-08 17:43:00,48.3,40.4,30.14,SSE,155,0.0,0.0,74,0.00,,CLR,0.00,VWS V14.00,2013-01-08 23:43:00,
2013-01-08 17:48:00,48.2,40.3,30.13,SSE,155,0.0,0.0,74,0.00,,CLR,0.00,VWS V14.00,2013-01-08 23:48:00,
2013-01-08 17:53:00,48.2,40.3,30.13,SSE,155,0.0,0.0,74,0.00,,CLR,0.00,VWS V14.00,2013-01-08 23:53:00,
2013-01-08 17:58:00,48.0,40.1,30.13,SSE,155,0.0,0.0,74,0.00,,CLR,0.00,VWS V14.00,2013-01-08 23:58:00,
2013-01-08 18:03:00,48.0,39.8,30.12,SSE,155,0.0,0.0,73,0.00,,CLR,0.00,VWS V14.00,2013-01-09 00:03:00,
2013-01-08 18:13:00,47.9,40.0,30.12,SSE,155,0.0,0.0,74,0.00,,CLR,0.00,VWS V14.00,2013-01-09 00:13:00,
2013-01-08 18:23:00,46.8,39.7,30.12,SSE,155,1.0,2.0,76,0.00,,CLR,0.00,VWS V14.00,2013-01-09 00:23:00,
2013-01-08 18:28:00,46.4,39.6,30.12,SSE,155,1.0,2.0,77,0.00,,CLR,0.00,VWS V14.00,2013-01-09 00:28:00,
2013-01-08 18:33:00,46.1,39.6,30.11,SSE,155,0.0,1.0,78,0.00,,CLR,0.00,VWS V14.00,2013-01-09 00:33:00,
2013-01-08 18:38:00,46.0,39.5,30.11,SSE,155,0.0,1.0,78,0.00,,CLR,0.00,VWS V14.00,2013-01-09 00:38:00,
2013-01-08 18:43:00,45.8,39.7,30.11,SSE,155,0.0,0.0,79,0.00,,CLR,0.00,VWS V14.00,2013-01-09 00:43:00,
2013-01-08 18:48:00,45.8,39.7,30.12,SSE,155,1.0,1.0,79,0.00,,CLR,0.00,VWS V14.00,2013-01-09 00:48:00,
2013-01-08 18:53:00,45.7,39.6,30.12,SSE,155,0.0,2.0,79,0.00,,CLR,0.00,VWS V14.00,2013-01-09 00:53:00,
2013-01-08 18:58:00,45.8,39.3,30.12,SSE,155,0.0,0.0,78,0.00,,CLR,0.00,VWS V14.00,2013-01-09 00:58:00,
2013-01-08 19:03:00,45.8,39.3,30.11,SSE,155,1.0,2.0,78,0.00,,CLR,0.00,VWS V14.00,2013-01-09 01:03:00,
2013-01-08 19:08:00,45.8,39.3,30.11,SSE,155,2.0,2.0,78,0.00,,CLR,0.00,VWS V14.00,2013-01-09 01:08:00,
2013-01-08 19:13:00,45.7,39.2,30.11,SSE,155,2.0,2.0,78,0.00,,CLR,0.00,VWS V14.00,2013-01-09 01:13:00,
2013-01-08 19:18:00,45.5,39.0,30.11,SSE,155,0.0,2.0,78,0.00,,CLR,0.00,VWS V14.00,2013-01-09 01:18:00,
2013-01-08 19:28:00,45.5,39.0,30.11,SSE,155,0.0,1.0,78,0.00,,CLR,0.00,VWS V14.00,2013-01-09 01:28:00,
2013-01-08 19:33:00,45.4,39.3,30.11,SSE,155,1.0,2.0,79,0.00,,SCT100,0.00,VWS V14.00,2013-01-09 01:33:00,
2013-01-08 19:43:00,45.4,39.0,30.11,SSE,155,0.0,0.0,78,0.00,,SCT100,0.00,VWS V14.00,2013-01-09 01:43:00,
2013-01-08 19:48:00,45.7,38.9,30.13,SSE,155,0.0,0.0,77,0.00,,SCT100,0.00,VWS V14.00,2013-01-09 01:48:00,
2013-01-08 19:53:00,46.0,38.9,30.13,SSE,155,0.0,2.0,76,0.00,,SCT100,0.00,VWS V14.00,2013-01-09 01:53:00,
2013-01-08 19:58:00,46.1,39.0,30.13,SSE,155,0.0,0.0,76,0.00,,SCT100,0.00,VWS V14.00,2013-01-09 01:58:00,
2013-01-08 20:03:00,46.2,38.7,30.13,SSE,155,0.0,0.0,75,0.00,,SCT100,0.00,VWS V14.00,2013-01-09 02:03:00,
2013-01-08 20:08:00,46.5,38.7,30.13,SSE,155,0.0,0.0,74,0.00,,SCT100,0.00,VWS V14.00,2013-01-09 02:08:00,
2013-01-08 20:13:00,46.5,38.3,30.13,SSE,155,0.0,0.0,73,0.00,,SCT100,0.00,VWS V14.00,2013-01-09 02:13:00,
2013-01-08 20:23:00,46.7,38.2,30.13,SSE,155,0.0,0.0,72,0.00,,SCT100,0.00,VWS V14.00,2013-01-09 02:23:00,
2013-01-08 20:28:00,46.8,38.3,30.13,SSE,155,0.0,0.0,72,0.00,,SCT100,0.00,VWS V14.00,2013-01-09 02:28:00,
2013-01-08 20:33:00,46.8,37.9,30.13,SSE,155,0.0,0.0,71,0.00,,OVC047,0.00,VWS V14.00,2013-01-09 02:33:00,
2013-01-08 20:38:00,47.0,38.1,30.13,SSE,155,0.0,0.0,71,0.00,,OVC047,0.00,VWS V14.00,2013-01-09 02:38:00,
2013-01-08 20:43:00,47.0,37.7,30.13,SSE,155,0.0,0.0,70,0.00,,OVC047,0.00,VWS V14.00,2013-01-09 02:43:00,
2013-01-08 20:48:00,47.1,37.8,30.12,SSE,155,0.0,0.0,70,0.00,,OVC047,0.00,VWS V14.00,2013-01-09 02:48:00,
2013-01-08 20:53:00,47.0,37.7,30.12,SSE,155,0.0,0.0,70,0.00,,OVC047,0.00,VWS V14.00,2013-01-09 02:53:00,
2013-01-08 21:03:00,46.8,37.5,30.12,SSE,155,0.0,0.0,70,0.00,,OVC047,0.00,VWS V14.00,2013-01-09 03:03:00,
2013-01-08 21:08:00,46.8,37.5,30.12,SSE,155,0.0,0.0,70,0.00,,OVC047,0.00,VWS V14.00,2013-01-09 03:08:00,
2013-01-08 21:13:00,46.8,37.9,30.12,SSE,155,0.0,0.0,71,0.00,,OVC047,0.00,VWS V14.00,2013-01-09 03:13:00,
2013-01-08 21:23:00,46.4,37.9,30.12,SSE,155,0.0,0.0,72,0.00,,OVC047,0.00,VWS V14.00,2013-01-09 03:23:00,
2013-01-08 21:28:00,46.2,37.7,30.12,SSE,155,0.0,0.0,72,0.00,,OVC047,0.00,VWS V14.00,2013-01-09 03:28:00,
2013-01-08 21:38:00,46.1,37.9,30.12,SSE,155,0.0,0.0,73,0.00,,OVC045,0.00,VWS V14.00,2013-01-09 03:38:00,
2013-01-08 21:43:00,46.1,37.9,30.12,SSE,155,0.0,0.0,73,0.00,,OVC045,0.00,VWS V14.00,2013-01-09 03:43:00,
2013-01-08 21:48:00,46.1,38.3,30.13,SSE,155,0.0,0.0,74,0.00,,OVC045,0.00,VWS V14.00,2013-01-09 03:48:00,
2013-01-08 21:53:00,46.0,38.2,30.13,SSE,155,0.0,0.0,74,0.00,,OVC045,0.00,VWS V14.00,2013-01-09 03:53:00,
2013-01-08 21:58:00,45.7,38.2,30.13,SSE,155,0.0,0.0,75,0.00,,OVC045,0.00,VWS V14.00,2013-01-09 03:58:00,
2013-01-08 22:03:00,45.5,38.0,30.13,SSE,155,0.0,0.0,75,0.00,,OVC045,0.00,VWS V14.00,2013-01-09 04:03:00,
2013-01-08 22:08:00,45.4,38.3,30.13,SSE,155,0.0,0.0,76,0.00,,OVC045,0.00,VWS V14.00,2013-01-09 04:08:00,
2013-01-08 22:13:00,44.9,38.1,30.13,SSE,155,2.0,3.0,77,0.00,,OVC045,0.00,VWS V14.00,2013-01-09 04:13:00,
2013-01-08 22:23:00,44.6,38.2,30.13,ENE,78,0.0,2.0,78,0.00,,OVC045,0.00,VWS V14.00,2013-01-09 04:23:00,
2013-01-08 22:28:00,44.5,38.1,30.13,ENE,78,1.0,3.0,78,0.00,,OVC045,0.00,VWS V14.00,2013-01-09 04:28:00,
2013-01-08 22:33:00,44.8,38.0,30.14,ENE,78,0.0,2.0,77,0.00,,OVC110,0.00,VWS V14.00,2013-01-09 04:33:00,
2013-01-08 22:38:00,44.9,38.1,30.14,ENE,78,0.0,0.0,77,0.00,,OVC110,0.00,VWS V14.00,2013-01-09 04:38:00,
2013-01-08 22:43:00,45.2,37.8,30.14,ENE,78,0.0,0.0,75,0.00,,OVC110,0.00,VWS V14.00,2013-01-09 04:43:00,
2013-01-08 22:48:00,45.4,38.0,30.14,ENE,78,0.0,2.0,75,0.00,,OVC110,0.00,VWS V14.00,2013-01-09 04:48:00,
2013-01-08 22:53:00,45.4,38.0,30.14,ENE,78,0.0,0.0,75,0.00,,OVC110,0.00,VWS V14.00,2013-01-09 04:53:00,
2013-01-08 22:58:00,45.4,38.0,30.14,ENE,78,0.0,0.0,75,0.00,,OVC110,0.00,VWS V14.00,2013-01-09 04:58:00,
2013-01-08 23:03:00,45.2,38.4,30.16,ENE,78,0.0,0.0,77,0.00,,OVC110,0.00,VWS V14.00,2013-01-09 05:03:00,
2013-01-08 23:08:00,45.1,38.7,30.16,ENE,78,0.0,0.0,78,0.00,,OVC110,0.00,VWS V14.00,2013-01-09 05:08:00,
2013-01-08 23:13:00,45.1,38.7,30.16,ENE,78,0.0,0.0,78,0.00,,OVC110,0.00,VWS V14.00,2013-01-09 05:13:00,
2013-01-08 23:18:00,45.1,38.7,30.16,ENE,78,0.0,0.0,78,0.00,,OVC110,0.00,VWS V14.00,2013-01-09 05:18:00,
2013-01-08 23:23:00,45.1,38.7,30.16,ENE,78,0.0,0.0,78,0.00,,OVC110,0.00,VWS V14.00,2013-01-09 05:23:00,
2013-01-08 23:28:00,45.1,39.0,30.16,ENE,78,0.0,0.0,79,0.00,,OVC110,0.00,VWS V14.00,2013-01-09 05:28:00,
2013-01-08 23:33:00,45.1,39.0,30.16,ENE,78,0.0,1.0,79,0.00,,-RA,0.00,VWS V14.00,2013-01-09 05:33:00,
2013-01-08 23:38:00,45.1,39.0,30.16,ENE,78,1.0,3.0,79,0.00,,-RA,0.00,VWS V14.00,2013-01-09 05:38:00,
2013-01-08 23:48:00,44.9,38.5,30.16,ENE,78,1.0,2.0,78,0.00,,-RA,0.00,VWS V14.00,2013-01-09 05:48:00,
2013-01-08 23:53:00,44.9,38.5,30.16,ENE,78,1.0,3.0,78,0.00,,-RA,0.00,VWS V14.00,2013-01-09 05:53:00,
2013-01-08 23:58:00,45.1,38.7,30.16,ENE,78,0.0,2.0,78,0.00,,-RA,0.00,VWS V14.00,2013-01-09 05:58:00,